Location: Newark
(44.3681°N, 100.3364°W)
Time: 14:20:10
(UTC+00:00)

Explorer 7 - Pass Details

Date: 26 February 2020
Orbit: 485 x 679 km, 50.3° (Epoch: 05 April)

Event Time Altitude Azimuth Distance (km) Brightness Sun altitude
Rises 21:33:13 0° 296° (WNW) 2,881 10.7 26.0°
Reaches altitude 10° 21:35:38 10° 300° (WNW) 1,941 9.9 25.7°
Maximum altitude 21:40:00 57° 20° (NNE) 675 7.3 25.1°
Drops below altitude 10° 21:44:05 10° 100° (E) 1,813 9.2 24.6°
Sets 21:46:16 0° 104° (ESE) 2,672 10.0 24.3°
